When you browse on this site, cookies collect data to enhance your experience and personalize the content and advertising you see.
Visit our Privacy Policy to learn more. By continuing to use the site, you agree to this use of cookies and data.
  • In Schweiz
  • Länderverzeichnis
  • Für 7 Tage
  • Wassertemperatur
  • Satellitenkarten
  • Wetterkarte
  • Widgets
  • user-avatar
    Anmelden

    Stündliche Wetter Ilinskoe

    Heute, 27 Juni, Donnerstag

    Zeit Temperatur Niederschläge Wind Luftdruck Luftfeuchtigkeit
    00:00 +18°C° 0.8 mm 1 m/S 742 mmHg 88%
    01:00 +18°C° 0.8 mm 1 m/S 741 mmHg 91%
    02:00 +16°C° 0.8 mm 2 m/S 741 mmHg 94%
    03:00 +16°C° 0.2 mm 1 m/S 740 mmHg 94%
    04:00 +18°C° 0.2 mm 1 m/S 740 mmHg 95%
    05:00 +18°C° 0.2 mm 1 m/S 739 mmHg 95%
    06:00 +18°C° 0 mm 1 m/S 739 mmHg 94%
    07:00 +19°C° 0 mm 1 m/S 738 mmHg 93%
    08:00 +19°C° 0 mm 2 m/S 738 mmHg 92%
    09:00 +19°C° 1.9 mm 2 m/S 737 mmHg 94%
    10:00 +19°C° 1.9 mm 3 m/S 736 mmHg 95%
    11:00 +19°C° 1.9 mm 4 m/S 735 mmHg 96%
    12:00 +20°C° 0.6 mm 4 m/S 734 mmHg 93%
    13:00 +21°C° 0.6 mm 5 m/S 734 mmHg 91%
    14:00 +22°C° 0.6 mm 5 m/S 733 mmHg 88%
    15:00 +21°C° 4.7 mm 4 m/S 732 mmHg 90%
    16:00 +20°C° 4.7 mm 3 m/S 730 mmHg 93%
    17:00 +21°C° 4.7 mm 1 m/S 729 mmHg 95%
    18:00 +19°C° 0.2 mm 2 m/S 728 mmHg 95%
    19:00 +19°C° 0.2 mm 2 m/S 728 mmHg 95%
    20:00 +19°C° 0.2 mm 2 m/S 727 mmHg 96%
    21:00 +18°C° 0.3 mm 3 m/S 727 mmHg 96%
    22:00 +18°C° 0.3 mm 4 m/S 726 mmHg 96%
    23:00 +17°C° 0.3 mm 5 m/S 726 mmHg 96%

    Morgen, 28 Juni, Freitag

    Zeit Temperatur Niederschläge Wind Luftdruck Luftfeuchtigkeit
    00:00 +17°C° 0 mm 5 m/S 726 mmHg 96%
    01:00 +16°C° 0 mm 5 m/S 726 mmHg 95%
    02:00 +16°C° 0 mm 5 m/S 725 mmHg 95%
    03:00 +15°C° 0.1 mm 6 m/S 725 mmHg 94%
    04:00 +14°C° 0.1 mm 6 m/S 725 mmHg 93%
    05:00 +13°C° 0.1 mm 6 m/S 725 mmHg 92%
    06:00 +13°C° 0.1 mm 6 m/S 725 mmHg 91%
    07:00 +14°C° 0.1 mm 6 m/S 725 mmHg 89%
    08:00 +14°C° 0.1 mm 6 m/S 724 mmHg 88%
    09:00 +14°C° 0 mm 6 m/S 724 mmHg 86%
    10:00 +14°C° 0 mm 6 m/S 724 mmHg 84%
    11:00 +14°C° 0 mm 6 m/S 724 mmHg 82%
    12:00 +14°C° 0.1 mm 6 m/S 724 mmHg 82%
    13:00 +15°C° 0.1 mm 5 m/S 724 mmHg 82%
    14:00 +15°C° 0.1 mm 5 m/S 724 mmHg 82%
    15:00 +14°C° 0.1 mm 5 m/S 725 mmHg 85%
    16:00 +13°C° 0.1 mm 5 m/S 725 mmHg 88%
    17:00 +12°C° 0.1 mm 5 m/S 725 mmHg 91%
    18:00 +10°C° 0.2 mm 6 m/S 725 mmHg 92%
    19:00 +9°C° 0.2 mm 6 m/S 726 mmHg 93%
    20:00 +9°C° 0.2 mm 7 m/S 726 mmHg 94%
    21:00 +9°C° 0.4 mm 7 m/S 726 mmHg 94%
    22:00 +9°C° 0.4 mm 7 m/S 727 mmHg 94%
    23:00 +7°C° 0.4 mm 8 m/S 727 mmHg 94%

    übermorgen, 29 Juni, Samstag

    Zeit Temperatur Niederschläge Wind Luftdruck Luftfeuchtigkeit
    00:00 +9°C° 0.4 mm 7 m/S 727 mmHg 94%
    01:00 +9°C° 0.4 mm 7 m/S 727 mmHg 95%
    02:00 +9°C° 0.4 mm 7 m/S 728 mmHg 95%
    03:00 +9°C° 0.4 mm 7 m/S 728 mmHg 95%
    04:00 +7°C° 0.4 mm 8 m/S 728 mmHg 94%
    05:00 +7°C° 0.4 mm 8 m/S 728 mmHg 94%
    06:00 +6°C° 0.5 mm 8 m/S 729 mmHg 94%
    07:00 +6°C° 0.5 mm 8 m/S 729 mmHg 94%
    08:00 +5°C° 0.5 mm 8 m/S 730 mmHg 93%
    09:00 +5°C° 0.6 mm 8 m/S 730 mmHg 93%
    10:00 +5°C° 0.6 mm 8 m/S 731 mmHg 92%
    11:00 +5°C° 0.6 mm 8 m/S 732 mmHg 92%
    12:00 +5°C° 1.1 mm 7 m/S 732 mmHg 92%
    13:00 +5°C° 1.1 mm 7 m/S 733 mmHg 93%
    14:00 +5°C° 1.1 mm 7 m/S 733 mmHg 93%
    15:00 +5°C° 1 mm 7 m/S 733 mmHg 93%
    16:00 +7°C° 1 mm 6 m/S 733 mmHg 93%
    17:00 +7°C° 1 mm 6 m/S 734 mmHg 93%
    18:00 +7°C° 0.7 mm 5 m/S 734 mmHg 93%
    19:00 +7°C° 0.7 mm 4 m/S 734 mmHg 93%
    20:00 +8°C° 0.7 mm 3 m/S 735 mmHg 93%
    21:00 +8°C° 0 mm 3 m/S 735 mmHg 92%
    22:00 +8°C° 0 mm 3 m/S 735 mmHg 92%
    23:00 +8°C° 0 mm 3 m/S 735 mmHg 91%

    30 Juni, Sonntag

    Zeit Temperatur Niederschläge Wind Luftdruck Luftfeuchtigkeit
    00:00 +8°C° 0 mm 3 m/S 735 mmHg 92%
    01:00 +7°C° 0 mm 3 m/S 736 mmHg 93%
    02:00 +7°C° 0 mm 2 m/S 736 mmHg 94%
    03:00 +7°C° 0 mm 3 m/S 736 mmHg 92%
    04:00 +7°C° 0 mm 3 m/S 736 mmHg 90%
    05:00 +6°C° 0 mm 4 m/S 737 mmHg 89%
    06:00 +8°C° 0 mm 4 m/S 737 mmHg 83%
    07:00 +11°C° 0 mm 4 m/S 737 mmHg 78%
    08:00 +13°C° 0 mm 4 m/S 738 mmHg 73%
    09:00 +14°C° 0 mm 5 m/S 738 mmHg 67%
    10:00 +16°C° 0 mm 5 m/S 738 mmHg 61%
    11:00 +17°C° 0 mm 5 m/S 738 mmHg 55%
    12:00 +19°C° 0 mm 5 m/S 738 mmHg 55%
    13:00 +19°C° 0 mm 5 m/S 738 mmHg 54%
    14:00 +20°C° 0 mm 4 m/S 738 mmHg 54%
    15:00 +19°C° 0 mm 4 m/S 738 mmHg 59%
    16:00 +19°C° 0 mm 3 m/S 739 mmHg 63%
    17:00 +19°C° 0 mm 2 m/S 739 mmHg 68%
    18:00 +18°C° 0 mm 2 m/S 739 mmHg 74%
    19:00 +16°C° 0 mm 2 m/S 739 mmHg 81%
    20:00 +14°C° 0 mm 2 m/S 739 mmHg 87%
    21:00 +13°C° 0 mm 2 m/S 739 mmHg 89%
    22:00 +13°C° 0 mm 2 m/S 739 mmHg 91%
    23:00 +12°C° 0 mm 2 m/S 740 mmHg 94%

    1 Juli, Montag

    Zeit Temperatur Niederschläge Wind Luftdruck Luftfeuchtigkeit
    00:00 +12°C° 0 mm 2 m/S 740 mmHg 94%
    01:00 +10°C° 0 mm 2 m/S 740 mmHg 95%
    02:00 +10°C° 0 mm 3 m/S 740 mmHg 95%
    03:00 +10°C° 0 mm 2 m/S 740 mmHg 95%
    04:00 +12°C° 0 mm 2 m/S 740 mmHg 94%
    05:00 +12°C° 0 mm 2 m/S 740 mmHg 93%
    06:00 +14°C° 0 mm 2 m/S 740 mmHg 86%
    07:00 +16°C° 0 mm 2 m/S 740 mmHg 80%
    08:00 +18°C° 0 mm 2 m/S 740 mmHg 73%
    09:00 +20°C° 0 mm 1 m/S 740 mmHg 66%
    10:00 +21°C° 0 mm 1 m/S 740 mmHg 60%
    11:00 +22°C° 0 mm 1 m/S 740 mmHg 54%
    12:00 +23°C° 0 mm 1 m/S 739 mmHg 53%
    13:00 +23°C° 0 mm 1 m/S 739 mmHg 52%
    14:00 +24°C° 0 mm 1 m/S 739 mmHg 51%
    15:00 +23°C° 0 mm 1 m/S 738 mmHg 55%
    16:00 +23°C° 0 mm 2 m/S 738 mmHg 60%
    17:00 +23°C° 0 mm 2 m/S 738 mmHg 65%
    18:00 +20°C° 0 mm 2 m/S 738 mmHg 69%
    19:00 +18°C° 0 mm 3 m/S 738 mmHg 74%
    20:00 +17°C° 0 mm 3 m/S 737 mmHg 79%
    21:00 +16°C° 0 mm 3 m/S 737 mmHg 78%
    22:00 +14°C° 0 mm 3 m/S 737 mmHg 78%
    23:00 +14°C° 0 mm 3 m/S 737 mmHg 78%

    2 Juli, Dienstag

    Zeit Temperatur Niederschläge Wind Luftdruck Luftfeuchtigkeit
    00:00 +14°C° 0 mm 3 m/S 736 mmHg 80%
    01:00 +13°C° 0 mm 3 m/S 736 mmHg 83%
    02:00 +13°C° 0 mm 3 m/S 736 mmHg 85%
    03:00 +14°C° 0 mm 3 m/S 736 mmHg 87%
    04:00 +14°C° 0 mm 3 m/S 735 mmHg 89%
    05:00 +16°C° 0 mm 3 m/S 735 mmHg 91%
    06:00 +18°C° 0.1 mm 3 m/S 735 mmHg 90%
    07:00 +19°C° 0.1 mm 3 m/S 735 mmHg 88%
    08:00 +21°C° 0.1 mm 3 m/S 735 mmHg 87%
    09:00 +21°C° 0 mm 3 m/S 735 mmHg 87%
    10:00 +21°C° 0 mm 3 m/S 734 mmHg 88%
    11:00 +21°C° 0 mm 3 m/S 734 mmHg 88%
    12:00 +22°C° 0.1 mm 4 m/S 734 mmHg 85%
    13:00 +22°C° 0.1 mm 4 m/S 734 mmHg 82%
    14:00 +23°C° 0.1 mm 4 m/S 734 mmHg 79%
    15:00 +23°C° 0.2 mm 4 m/S 734 mmHg 79%
    16:00 +23°C° 0.2 mm 5 m/S 734 mmHg 79%
    17:00 +23°C° 0.2 mm 5 m/S 734 mmHg 78%
    18:00 +21°C° 0 mm 4 m/S 734 mmHg 82%
    19:00 +19°C° 0 mm 4 m/S 734 mmHg 85%
    20:00 +18°C° 0 mm 3 m/S 734 mmHg 89%
    21:00 +17°C° 0 mm 3 m/S 734 mmHg 89%
    22:00 +16°C° 0 mm 3 m/S 734 mmHg 90%
    23:00 +14°C° 0 mm 3 m/S 734 mmHg 90%
    Mehr zeigen